Location: Diebersbach
(48.5163°N, 8.0558°E)
Time: 06:55:37
(UTC+00:00)

MSX - Visible Passes

Search period start: 26 October 2021 00:00
Search period end: 05 November 2021 00:00
Orbit: 895 x 905 km, 98.9° (Epoch: 25 October)

Date Brightness Start Highest point End Pass type
(mag) Time Alt. Az. Time Alt. Az. Time Alt. Az.
26 Oct 6.4 01:13:43 10° NE 01:15:01 15° NE 01:15:01 15° NE visible
26 Oct 5.0 02:54:52 10° N 02:58:03 33° N 02:58:03 33° N visible
26 Oct 5.6 04:38:50 10° NNW 04:41:05 12° NW 04:41:06 12° NW visible
27 Oct 6.4 01:16:21 10° NE 01:17:37 15° NE 01:17:37 15° NE visible
27 Oct 5.0 02:57:35 10° N 03:00:39 32° N 03:00:39 32° N visible
27 Oct 5.7 04:41:45 10° NNW 04:43:42 12° NW 04:43:42 12° NW visible
28 Oct 6.4 01:19:00 10° NE 01:20:13 15° NE 01:20:13 15° NE visible
28 Oct 5.1 03:00:18 10° N 03:03:17 30° N 03:03:17 30° N visible
28 Oct 5.7 04:44:41 10° NNW 04:46:19 11° NW 04:46:19 11° NW visible
29 Oct 6.4 01:21:39 10° NE 01:22:50 15° NE 01:22:50 15° NE visible
29 Oct 5.1 03:03:02 10° N 03:05:53 29° N 03:05:53 29° N visible
29 Oct 5.7 04:47:42 10° NNW 04:48:56 11° NW 04:48:56 11° NW visible
30 Oct 6.4 01:24:18 10° NNE 01:25:27 15° NE 01:25:27 15° NE visible
30 Oct 5.2 03:05:45 10° N 03:08:30 27° N 03:08:30 27° N visible
30 Oct 5.8 04:50:51 10° NW 04:51:32 10° NW 04:51:32 10° NW visible
31 Oct 6.4 01:26:57 10° NNE 01:28:04 15° NE 01:28:04 15° NE visible
31 Oct 5.2 03:08:29 10° N 03:11:06 26° N 03:11:06 26° N visible
01 Nov 6.4 01:29:37 10° NNE 01:30:40 15° NE 01:30:40 15° NE visible
01 Nov 5.3 03:11:12 10° N 03:13:43 25° N 03:13:43 25° N visible
02 Nov 6.4 01:32:17 10° NNE 01:33:17 15° NE 01:33:17 15° NE visible
02 Nov 5.3 03:13:57 10° N 03:16:20 24° N 03:16:20 24° N visible
03 Nov 6.4 01:34:56 10° NNE 01:35:54 15° NE 01:35:54 15° NE visible
03 Nov 5.4 03:16:40 10° N 03:18:56 23° N 03:18:56 23° N visible
04 Nov 6.4 01:37:36 10° NNE 01:38:31 14° NNE 01:38:31 14° NNE visible
04 Nov 5.4 03:19:24 10° N 03:21:33 22° N 03:21:33 22° N visible
